SCP
-0 0 -0 -0 -0 -0 -1 -0 -1 -1 -1 -1 -1 -1 -1 -0 -0 -0 -0 0 0 -0 -0 -0 0 0 -0 -0 -0 -0 -0 -0 -0 -0 -0 -0 -0 -0 0 -0 -0 0 -0
0 0 -0 -0 -0 -0 -1 -1 -1 -1 -1 -1 -1 -1 -1 -0 -0 -0 -0 -0 -0 0 0 0 0 0 -0 -0 -0 -0 -0 -0 -0 -0 -0 0 -0 -0 0 -0 -0 0 -0
-0 -0 -0 -0 -0 -0 -0 -1 -1 -1 -1 -1 -1 -1 -1 -0 -0 -0 -0 -0 -0 0 0 0 0 -0 -0 -0 -0 -0 -0 -0 -0 -0 -0 -0 -0 -0 -0 -0 -0 -0 -0
-0 -0 -0 -0 -0 -0 -1 -1 -1 -1 -1 -1 -1 -1 -1 -0 -0 -1 -1 -0 -0 -0 -0 0 0 -0 -0 -0 -0 -0 -0 -0 -0 -0 0 0 -0 -0 -0 -0 -0 -0 -0
-0 -0 -0 -0 -0 -0 -1 -1 -0 -0 -0 -1 -1 -0 -1 -0 -0 -1 -1 -0 -0 -0 -0 -0 0 -0 -0 -0 -0 -0 -0 -0 -0 0 0 0 0 0 0 -0 -0 -0 -0
-0 -0 -0 -0 -0 -0 -0 -0 -0 -1 -1 -0 -0 -0 -1 -0 -0 -0 -0 -0 -0 -0 -0 -0 -0 -0 -0 0 -0 -0 -0 -0 -0 0 0 0 0 -0 -0 -0 -0 -0 -0
-0 0 -0 -0 -1 -0 -1 -1 -1 -1 -1 -0 -0 -0 -0 -0 -0 -0 -0 -0 -0 -0 -0 -0 -0 -0 0 0 0 -0 -0 -0 0 -0 0 -0 0 -0 -0 -0 0 0 0
-0 -0 -0 -0 -0 -1 -1 -1 -1 -0 -0 -0 -0 -0 -0 -0 -0 -0 -0 -0 -0 -0 -0 -0 -0 0 0 -0 0 0 0 -0 -0 -0 -0 0 -0 -0 -0 -0 -0 0 0
-0 -0 -0 -0 -0 -0 -1 -1 -0 -0 -0 -0 -0 -0 -0 -0 -0 -0 -0 -0 -0 0 0 0 0 0 0 0 0 0 -0 -0 -0 0 0 -0 0 -0 -0 -0 -0 0 0
-0 -0 -0 -0 -0 -0 -0 -0 -0 -0 -0 -0 -0 -0 -0 -0 -0 0 -0 -0 -0 0 0 0 0 0 0 0 0 -0 -0 -0 0 -0 0 -0 -0 -0 -0 0 0 0 0
-0 -0 -0 -0 -0 -0 -0 -0 -0 -0 -0 -0 -0 -0 -0 0 0 -0 -0 0 0 -0 0 0 0 0 0 0 -0 -0 -0 0 0 0 0 0 -0 -0 -0 0 0 0 0
-0 -0 -0 -0 -0 -0 -0 0 0 -0 0 0 0 -0 -0 0 0 0 0 0 0 -0 0 0 0 0 0 -0 -0 -0 -0 -0 0 0 0 -0 -0 -0 -0 -0 0 0 0
-0 -0 -0 -0 -0 -0 -0 0 0 0 0 0 0 -0 0 0 0 0 -0 -0 -0 -0 0 0 0 0 0 -0 -0 0 -0 -0 -0 0 0 -0 -0 -0 -0 -0 -0 0 0
-0 -0 -0 -0 -0 -0 0 0 0 -0 0 0 -0 -0 0 0 0 0 -0 -0 -0 -0 -0 -0 -0 0 0 0 0 0 -0 0 0 0 0 -0 -0 -0 -0 -0 -0 -0 0
-0 -0 -0 -0 -0 -0 -0 -0 0 0 0 -0 -0 0 -0 0 0 0 0 -0 -0 -0 -0 -0 -0 0 0 0 0 0 -0 0 0 0 -0 0 -0 -0 -0 -0 -0 -0 -0
-0 -0 -0 -0 -0 -0 -0 -0 -0 -0 0 -0 -0 -0 0 0 0 0 -0 -0 -0 -0 -0 -0 -0 0 0 0 0 0 -0 0 0 0 0 0 -0 -0 -0 -0 -0 -0 -0
-0 -0 -0 -0 -0 -0 -0 -0 -0 -0 0 -0 -0 0 -0 0 0 0 0 -0 -0 -0 -0 -0 -0 -0 -0 0 0 0 -0 -0 0 0 0 0 0 -0 -0 -0 -1 -0 -0
0 -0 -0 -0 -0 -0 -0 -0 0 0 0 0 0 0 0 -0 0 0 -0 -0 0 -0 -0 -0 -0 -0 0 -0 -0 -0 -0 0 0 0 0 0 0 0 -0 -0 -1 -1 -0
0 0 -0 -0 -0 -0 0 -0 0 0 0 0 0 -0 0 -0 0 0 -0 -0 -0 -0 -0 -0 -0 -0 -0 -0 -0 -0 -0 0 0 0 0 0 0 0 0 -0 -0 -0 -0
0 1 0 -0 -0 -0 0 0 0 0 0 0 0 0 0 0 0 0 0 -0 -0 -0 -0 -0 -0 -0 -0 -0 -0 -0 -0 -0 -0 -0 0 0 0 -0 0 0 0 -0 -0
0 0 1 1 0 0 1 0 0 0 0 0 0 0 -0 0 0 0 0 0 -0 -0 -0 -0 -0 -0 -0 -0 -0 -0 -0 -0 -0 -0 -0 -0 -0 -0 -0 -0 0 0 0
0 0 0 0 1 1 1 0 0 0 0 0 0 0 -0 0 -0 -0 0 0 0 -0 0 -0 0 0 0 0 0 0 -0 -0 -0 -0 -0 -0 0 0 -0 -0 -0 0 0
0 0 0 0 0 1 1 1 1 0 0 0 0 0 0 -0 -0 -0 -0 0 0 -0 -0 0 -0 0 0 0 0 0 0 0 0 0 -0 -0 -0 0 0 -0 -0 0 0
0 0 0 0 0 0 0 1 1 1 0 0 0 0 0 -0 -0 -0 -0 -0 0 0 -0 -0 0 0 0 0 0 0 0 0 0 0 0 -0 -0 0 0 0 0 0 0
0 1 1 0 0 0 0 0 0 1 0 0 0 0 0 0 0 -0 -0 -0 0 0 0 -0 -0 -0 0 0 0 0 0 0 0 0 -0 0 0 0 0 0 0 0 0
0 2 1 0 0 0 0 0 0 0 0 0 0 0 0 0 0 0 -0 -0 -0 0 0 0 0 0 -0 0 0 0 0 0 0 0 0 0 -0 0 0 0 0 0 0
Wind_Speed_500mb
43 46 49 51 55 56 54 52 50 50 50 49 48 48 50 51 47 42 38 33 30 28 25 26 25 26 27 28 28 29 29 27 30 36 39 33 34 32 33 36 34 37 36
54 50 49 53 55 56 59 62 60 57 54 51 52 54 51 46 42 40 35 33 30 27 27 27 30 31 30 30 32 30 28 26 29 33 32 32 31 28 29 30 31 32 32
56 54 53 55 54 55 58 59 56 54 53 55 54 51 47 43 42 41 37 33 30 31 31 34 34 33 33 32 31 30 30 30 27 24 22 21 24 24 24 25 27 29 30
58 54 53 51 52 53 55 54 52 52 53 52 50 47 46 44 42 41 39 36 35 34 33 31 32 33 32 31 31 33 35 35 29 25 21 20 16 20 22 23 25 26 27
56 53 53 51 51 50 52 49 46 45 45 45 43 41 40 39 37 35 33 32 31 31 31 30 29 27 26 27 26 25 23 22 21 19 11 10 13 19 21 21 23 22 23
54 52 52 51 50 48 46 46 46 45 44 40 36 35 32 33 29 30 27 27 27 27 23 22 22 21 21 22 24 21 13 14 13 23 27 9 12 17 22 23 20 20 19
52 52 51 51 50 47 47 46 44 43 41 37 29 25 26 28 24 20 18 20 21 23 22 19 17 15 15 17 16 15 9 11 4 2 35 21 16 15 18 21 22 19 16
49 50 50 50 48 47 46 46 42 39 36 32 28 22 16 15 15 12 7 11 16 18 19 17 14 11 9 10 10 11 12 13 17 24 25 35 26 20 15 14 18 19 19
37 46 49 49 47 46 44 42 39 36 32 28 24 22 20 11 12 10 14 15 12 15 14 12 10 7 4 2 3 5 9 13 17 27 29 52 36 28 23 20 17 18 20
31 38 44 47 48 46 45 40 34 32 31 28 26 25 23 25 31 37 33 31 22 17 14 10 6 3 1 4 4 7 10 19 23 6 24 35 36 30 28 27 26 23 22
32 39 37 41 44 43 40 36 31 27 26 24 25 27 30 30 31 32 32 32 35 22 17 11 6 3 3 9 6 6 8 16 19 19 18 29 35 27 34 31 35 32 27
44 43 41 40 38 41 38 35 33 29 21 20 31 31 29 30 33 37 42 41 46 27 21 13 9 3 4 11 12 11 9 11 15 23 20 27 30 26 29 36 37 39 35
38 36 37 38 37 36 36 36 33 28 30 23 14 32 19 23 27 27 28 44 51 35 21 15 14 10 9 8 12 13 13 9 18 27 28 29 27 27 28 29 31 42 39
42 37 39 33 34 33 30 25 29 28 33 33 22 19 30 19 18 17 15 42 46 46 25 21 14 14 6 6 13 15 15 18 10 20 24 28 28 23 21 23 23 35 40
45 43 41 38 37 33 32 22 22 25 31 27 24 19 17 29 13 13 15 30 45 43 40 26 22 16 16 13 17 11 15 11 4 12 16 19 17 13 16 21 22 26 37
48 47 42 43 38 33 35 29 30 20 22 22 31 27 15 13 24 16 13 19 29 42 44 34 25 22 21 16 17 15 17 24 21 12 9 14 13 9 12 16 21 24 34
51 51 43 46 43 37 35 32 31 30 31 22 24 35 27 16 18 23 17 13 17 27 42 43 31 25 24 24 19 22 26 19 21 17 13 16 13 10 7 11 15 20 26
52 56 48 47 44 37 39 37 31 32 32 29 29 31 25 20 13 27 21 17 14 22 38 43 33 33 33 27 27 23 27 26 23 23 25 22 21 18 13 10 10 17 18
57 49 49 51 44 26 40 39 24 29 28 22 24 33 26 21 22 19 22 21 19 22 36 42 39 33 35 31 28 26 27 26 32 28 29 30 24 22 20 16 13 12 16
52 45 53 53 46 32 41 35 22 27 25 28 20 23 29 22 26 27 19 30 28 27 26 28 38 39 36 32 31 29 25 30 35 32 32 34 33 30 26 20 20 17 18
56 41 57 59 49 43 45 40 37 30 28 29 30 23 28 34 23 30 28 22 32 30 27 27 32 38 42 37 38 36 32 27 33 38 40 33 37 36 31 29 27 23 14
55 50 47 61 50 45 46 45 36 27 27 24 26 28 28 33 30 32 31 27 33 31 32 35 39 40 41 36 41 39 39 40 37 34 33 29 35 33 32 31 32 29 22
57 57 44 53 52 46 43 41 41 34 34 30 36 34 27 31 33 31 31 33 31 35 40 39 42 43 40 38 37 31 12 15 12 29 29 29 29 33 36 35 32 34 28
61 62 50 45 49 42 39 44 45 44 34 32 25 22 26 26 29 32 30 36 37 33 35 43 38 38 36 35 32 33 35 20 4 7 21 29 30 35 40 42 35 39 36
47 63 54 44 47 39 34 38 38 47 41 32 28 26 26 27 26 34 37 37 37 40 36 34 43 37 34 35 34 28 31 34 35 29 23 17 28 36 33 35 33 41 32
33 53 66 59 46 42 36 36 38 41 44 38 34 32 26 26 26 28 34 40 43 43 42 39 38 44 40 41 36 32 34 28 31 25 25 24 25 28 34 34 36 37 40
Wind_Direction_500mb
143 140 139 138 137 138 140 142 140 137 136 134 134 134 131 125 121 125 128 131 133 126 127 136 138 134 126 126 118 120 117 123 132 132 123 118 116 119 122 118 119 118 118
144 142 142 141 139 137 137 136 135 134 134 134 133 132 131 130 127 124 122 121 123 127 127 128 129 131 128 123 121 123 121 128 128 122 116 126 131 125 125 126 122 122 122
144 143 145 144 142 138 138 138 137 138 139 137 135 134 131 131 128 125 122 121 118 119 120 125 124 126 124 122 126 128 124 116 111 114 118 120 127 120 132 131 125 124 124
146 146 148 147 143 141 141 142 142 139 138 139 137 133 131 128 127 126 122 115 113 113 117 124 130 132 131 131 133 130 121 119 112 118 127 139 136 133 136 134 127 124 125
150 149 149 149 146 144 147 144 138 137 137 139 139 135 132 131 132 133 130 125 118 118 121 127 134 135 134 134 142 136 136 149 136 117 111 144 175 155 148 148 139 133 128
152 152 151 152 151 150 149 147 143 145 143 140 141 139 136 131 134 133 139 136 132 125 120 123 128 135 138 141 155 162 171 173 162 209 222 187 179 187 164 157 150 141 140
152 154 153 157 155 154 154 154 153 148 144 143 147 150 147 136 128 123 145 145 144 136 130 128 129 138 142 153 166 179 194 237 194 152 183 209 175 198 183 169 170 154 160
154 156 157 160 160 159 162 162 162 159 156 152 154 156 169 175 174 143 178 176 165 155 144 138 144 152 155 167 181 210 218 246 254 218 213 199 200 202 212 192 184 174 179
156 160 161 164 165 166 170 172 174 172 174 174 170 174 180 185 214 210 275 251 215 181 168 151 149 132 121 152 224 246 239 251 262 258 247 226 216 203 222 222 211 201 194
166 171 166 168 171 172 179 183 187 191 192 200 199 197 207 215 248 258 274 250 236 211 194 180 166 143 52 348 337 284 230 229 244 310 207 196 208 215 228 230 220 215 205
173 176 176 175 176 179 180 188 196 202 207 219 225 230 231 237 241 239 256 242 225 225 211 200 190 200 325 340 316 286 261 235 240 232 231 213 211 229 229 228 227 217 214
166 177 185 185 184 182 187 193 197 200 206 232 236 238 239 242 248 248 253 233 216 222 214 209 209 210 344 337 305 262 284 234 258 260 247 215 222 236 236 233 229 219 219
172 172 178 186 194 197 199 205 204 216 208 225 238 229 228 235 242 253 250 204 210 215 214 213 219 239 292 294 338 320 255 264 266 246 232 220 224 227 230 235 234 218 214
183 180 171 170 172 182 191 203 211 238 213 221 233 230 235 232 230 245 234 206 213 222 225 217 225 237 259 316 315 327 290 255 274 208 232 219 218 223 231 243 229 215 214
191 193 181 182 181 184 183 199 223 224 224 220 219 222 227 236 211 220 232 222 226 230 227 225 236 247 254 293 288 307 256 285 316 187 198 215 212 213 225 241 227 213 217
199 201 194 195 199 208 204 208 224 255 218 227 234 233 245 242 222 224 223 230 231 232 227 226 233 246 257 266 272 291 281 287 263 257 241 220 200 202 218 250 239 225 230
201 204 204 204 207 212 221 221 239 248 232 250 241 225 231 244 240 226 224 236 238 231 221 222 231 236 246 262 270 274 278 267 247 253 261 245 225 206 211 239 249 234 237
196 202 206 208 208 218 218 226 240 239 243 249 241 218 219 234 234 224 221 242 236 226 214 220 236 238 243 257 260 252 248 273 255 254 270 250 244 240 238 244 261 238 233
203 209 208 210 217 232 217 228 242 243 243 246 248 220 219 224 228 236 224 221 224 215 219 231 236 242 240 249 262 256 245 263 258 267 254 246 256 254 251 247 236 246 246
215 223 215 216 218 227 224 230 246 242 246 251 253 243 228 229 235 232 286 224 213 215 219 222 222 227 232 240 250 257 261 258 253 256 256 246 241 255 253 238 236 247 258
213 221 219 218 214 219 223 218 237 253 243 251 250 257 242 228 244 246 248 252 226 221 222 223 222 225 232 244 250 254 255 258 257 246 248 237 241 260 241 240 247 248 247
213 220 222 219 220 222 228 234 247 252 247 258 260 259 254 250 247 247 250 256 238 237 235 234 231 235 237 241 245 257 270 268 263 243 230 232 237 241 244 242 246 246 238
219 221 226 223 222 228 233 237 240 239 247 242 240 239 246 248 246 248 246 242 238 240 240 245 245 241 250 251 240 241 233 245 277 245 240 237 224 230 239 246 245 244 236
222 222 226 228 226 232 238 237 244 242 248 250 252 251 242 245 245 245 239 237 236 240 248 242 244 246 259 244 233 241 232 242 293 303 227 226 236 244 246 250 238 238 235
220 220 223 232 232 238 240 246 245 241 254 253 252 246 238 236 246 247 243 240 241 246 249 247 246 252 246 249 245 247 238 241 254 259 270 236 243 247 239 233 240 236 245
226 223 221 225 233 237 238 243 239 242 245 236 232 236 238 236 236 244 245 244 247 248 250 253 252 246 246 249 250 255 249 244 250 256 253 257 242 250 236 238 247 252 247
Wind_Speed_850mb
43 46 49 51 55 56 54 52 50 50 50 49 48 48 50 51 47 42 38 33 30 28 25 26 25 26 27 28 28 29 29 27 30 36 39 33 34 32 33 36 34 37 36
54 50 49 53 55 56 59 62 60 57 54 51 52 54 51 46 42 40 35 33 30 27 27 27 30 31 30 30 32 30 28 26 29 33 32 32 31 28 29 30 31 32 32
56 54 53 55 54 55 58 59 56 54 53 55 54 51 47 43 42 41 37 33 30 31 31 34 34 33 33 32 31 30 30 30 27 24 22 21 24 24 24 25 27 29 30
58 54 53 51 52 53 55 54 52 52 53 52 50 47 46 44 42 41 39 36 35 34 33 31 32 33 32 31 31 33 35 35 29 25 21 20 16 20 22 23 25 26 27
56 53 53 51 51 50 52 49 46 45 45 45 43 41 40 39 37 35 33 32 31 31 31 30 29 27 26 27 26 25 23 22 21 19 11 10 13 19 21 21 23 22 23
54 52 52 51 50 48 46 46 46 45 44 40 36 35 32 33 29 30 27 27 27 27 23 22 22 21 21 22 24 21 13 14 13 23 27 9 12 17 22 23 20 20 19
52 52 51 51 50 47 47 46 44 43 41 37 29 25 26 28 24 20 18 20 21 23 22 19 17 15 15 17 16 15 9 11 4 2 35 21 16 15 18 21 22 19 16
49 50 50 50 48 47 46 46 42 39 36 32 28 22 16 15 15 12 7 11 16 18 19 17 14 11 9 10 10 11 12 13 17 24 25 35 26 20 15 14 18 19 19
37 46 49 49 47 46 44 42 39 36 32 28 24 22 20 11 12 10 14 15 12 15 14 12 10 7 4 2 3 5 9 13 17 27 29 52 36 28 23 20 17 18 20
31 38 44 47 48 46 45 40 34 32 31 28 26 25 23 25 31 37 33 31 22 17 14 10 6 3 1 4 4 7 10 19 23 6 24 35 36 30 28 27 26 23 22
32 39 37 41 44 43 40 36 31 27 26 24 25 27 30 30 31 32 32 32 35 22 17 11 6 3 3 9 6 6 8 16 19 19 18 29 35 27 34 31 35 32 27
44 43 41 40 38 41 38 35 33 29 21 20 31 31 29 30 33 37 42 41 46 27 21 13 9 3 4 11 12 11 9 11 15 23 20 27 30 26 29 36 37 39 35
38 36 37 38 37 36 36 36 33 28 30 23 14 32 19 23 27 27 28 44 51 35 21 15 14 10 9 8 12 13 13 9 18 27 28 29 27 27 28 29 31 42 39
42 37 39 33 34 33 30 25 29 28 33 33 22 19 30 19 18 17 15 42 46 46 25 21 14 14 6 6 13 15 15 18 10 20 24 28 28 23 21 23 23 35 40
45 43 41 38 37 33 32 22 22 25 31 27 24 19 17 29 13 13 15 30 45 43 40 26 22 16 16 13 17 11 15 11 4 12 16 19 17 13 16 21 22 26 37
48 47 42 43 38 33 35 29 30 20 22 22 31 27 15 13 24 16 13 19 29 42 44 34 25 22 21 16 17 15 17 24 21 12 9 14 13 9 12 16 21 24 34
51 51 43 46 43 37 35 32 31 30 31 22 24 35 27 16 18 23 17 13 17 27 42 43 31 25 24 24 19 22 26 19 21 17 13 16 13 10 7 11 15 20 26
52 56 48 47 44 37 39 37 31 32 32 29 29 31 25 20 13 27 21 17 14 22 38 43 33 33 33 27 27 23 27 26 23 23 25 22 21 18 13 10 10 17 18
57 49 49 51 44 26 40 39 24 29 28 22 24 33 26 21 22 19 22 21 19 22 36 42 39 33 35 31 28 26 27 26 32 28 29 30 24 22 20 16 13 12 16
52 45 53 53 46 32 41 35 22 27 25 28 20 23 29 22 26 27 19 30 28 27 26 28 38 39 36 32 31 29 25 30 35 32 32 34 33 30 26 20 20 17 18
56 41 57 59 49 43 45 40 37 30 28 29 30 23 28 34 23 30 28 22 32 30 27 27 32 38 42 37 38 36 32 27 33 38 40 33 37 36 31 29 27 23 14
55 50 47 61 50 45 46 45 36 27 27 24 26 28 28 33 30 32 31 27 33 31 32 35 39 40 41 36 41 39 39 40 37 34 33 29 35 33 32 31 32 29 22
57 57 44 53 52 46 43 41 41 34 34 30 36 34 27 31 33 31 31 33 31 35 40 39 42 43 40 38 37 31 12 15 12 29 29 29 29 33 36 35 32 34 28
61 62 50 45 49 42 39 44 45 44 34 32 25 22 26 26 29 32 30 36 37 33 35 43 38 38 36 35 32 33 35 20 4 7 21 29 30 35 40 42 35 39 36
47 63 54 44 47 39 34 38 38 47 41 32 28 26 26 27 26 34 37 37 37 40 36 34 43 37 34 35 34 28 31 34 35 29 23 17 28 36 33 35 33 41 32
33 53 66 59 46 42 36 36 38 41 44 38 34 32 26 26 26 28 34 40 43 43 42 39 38 44 40 41 36 32 34 28 31 25 25 24 25 28 34 34 36 37 40
Wind_Direction_850mb
143 140 139 138 137 138 140 142 140 137 136 134 134 134 131 125 121 125 128 131 133 126 127 136 138 134 126 126 118 120 117 123 132 132 123 118 116 119 122 118 119 118 118
144 142 142 141 139 137 137 136 135 134 134 134 133 132 131 130 127 124 122 121 123 127 127 128 129 131 128 123 121 123 121 128 128 122 116 126 131 125 125 126 122 122 122
144 143 145 144 142 138 138 138 137 138 139 137 135 134 131 131 128 125 122 121 118 119 120 125 124 126 124 122 126 128 124 116 111 114 118 120 127 120 132 131 125 124 124
146 146 148 147 143 141 141 142 142 139 138 139 137 133 131 128 127 126 122 115 113 113 117 124 130 132 131 131 133 130 121 119 112 118 127 139 136 133 136 134 127 124 125
150 149 149 149 146 144 147 144 138 137 137 139 139 135 132 131 132 133 130 125 118 118 121 127 134 135 134 134 142 136 136 149 136 117 111 144 175 155 148 148 139 133 128
152 152 151 152 151 150 149 147 143 145 143 140 141 139 136 131 134 133 139 136 132 125 120 123 128 135 138 141 155 162 171 173 162 209 222 187 179 187 164 157 150 141 140
152 154 153 157 155 154 154 154 153 148 144 143 147 150 147 136 128 123 145 145 144 136 130 128 129 138 142 153 166 179 194 237 194 152 183 209 175 198 183 169 170 154 160
154 156 157 160 160 159 162 162 162 159 156 152 154 156 169 175 174 143 178 176 165 155 144 138 144 152 155 167 181 210 218 246 254 218 213 199 200 202 212 192 184 174 179
156 160 161 164 165 166 170 172 174 172 174 174 170 174 180 185 214 210 275 251 215 181 168 151 149 132 121 152 224 246 239 251 262 258 247 226 216 203 222 222 211 201 194
166 171 166 168 171 172 179 183 187 191 192 200 199 197 207 215 248 258 274 250 236 211 194 180 166 143 52 348 337 284 230 229 244 310 207 196 208 215 228 230 220 215 205
173 176 176 175 176 179 180 188 196 202 207 219 225 230 231 237 241 239 256 242 225 225 211 200 190 200 325 340 316 286 261 235 240 232 231 213 211 229 229 228 227 217 214
166 177 185 185 184 182 187 193 197 200 206 232 236 238 239 242 248 248 253 233 216 222 214 209 209 210 344 337 305 262 284 234 258 260 247 215 222 236 236 233 229 219 219
172 172 178 186 194 197 199 205 204 216 208 225 238 229 228 235 242 253 250 204 210 215 214 213 219 239 292 294 338 320 255 264 266 246 232 220 224 227 230 235 234 218 214
183 180 171 170 172 182 191 203 211 238 213 221 233 230 235 232 230 245 234 206 213 222 225 217 225 237 259 316 315 327 290 255 274 208 232 219 218 223 231 243 229 215 214
191 193 181 182 181 184 183 199 223 224 224 220 219 222 227 236 211 220 232 222 226 230 227 225 236 247 254 293 288 307 256 285 316 187 198 215 212 213 225 241 227 213 217
199 201 194 195 199 208 204 208 224 255 218 227 234 233 245 242 222 224 223 230 231 232 227 226 233 246 257 266 272 291 281 287 263 257 241 220 200 202 218 250 239 225 230
201 204 204 204 207 212 221 221 239 248 232 250 241 225 231 244 240 226 224 236 238 231 221 222 231 236 246 262 270 274 278 267 247 253 261 245 225 206 211 239 249 234 237
196 202 206 208 208 218 218 226 240 239 243 249 241 218 219 234 234 224 221 242 236 226 214 220 236 238 243 257 260 252 248 273 255 254 270 250 244 240 238 244 261 238 233
203 209 208 210 217 232 217 228 242 243 243 246 248 220 219 224 228 236 224 221 224 215 219 231 236 242 240 249 262 256 245 263 258 267 254 246 256 254 251 247 236 246 246
215 223 215 216 218 227 224 230 246 242 246 251 253 243 228 229 235 232 286 224 213 215 219 222 222 227 232 240 250 257 261 258 253 256 256 246 241 255 253 238 236 247 258
213 221 219 218 214 219 223 218 237 253 243 251 250 257 242 228 244 246 248 252 226 221 222 223 222 225 232 244 250 254 255 258 257 246 248 237 241 260 241 240 247 248 247
213 220 222 219 220 222 228 234 247 252 247 258 260 259 254 250 247 247 250 256 238 237 235 234 231 235 237 241 245 257 270 268 263 243 230 232 237 241 244 242 246 246 238
219 221 226 223 222 228 233 237 240 239 247 242 240 239 246 248 246 248 246 242 238 240 240 245 245 241 250 251 240 241 233 245 277 245 240 237 224 230 239 246 245 244 236
222 222 226 228 226 232 238 237 244 242 248 250 252 251 242 245 245 245 239 237 236 240 248 242 244 246 259 244 233 241 232 242 293 303 227 226 236 244 246 250 238 238 235
220 220 223 232 232 238 240 246 245 241 254 253 252 246 238 236 246 247 243 240 241 246 249 247 246 252 246 249 245 247 238 241 254 259 270 236 243 247 239 233 240 236 245
226 223 221 225 233 237 238 243 239 242 245 236 232 236 238 236 236 244 245 244 247 248 250 253 252 246 246 249 250 255 249 244 250 256 253 257 242 250 236 238 247 252 247